Cloud_Cover
58 10 5 5 5 5 1 2 1 15 29 85 94 5 5 5 5 5 5 5 5 4 1 0 2 5 2 4 0 4 0 1 0 0 0 0 0 0 0 5 5 5 15
63 28 5 5 46 5 5 5 2 5 63 81 62 8 5 5 5 5 17 5 5 5 5 5 8 3 0 0 0 0 5 3 0 0 0 0 1 20 8 59 100 82 38
77 51 13 14 19 5 5 5 5 5 49 5 92 87 5 5 68 65 90 62 15 77 11 3 5 5 4 3 5 5 5 3 2 2 5 5 5 18 5 3 31 100 24
93 89 35 8 5 32 5 5 72 95 82 24 82 82 85 14 88 95 100 90 100 74 20 83 74 9 63 56 8 18 5 5 1 2 4 3 5 3 19 5 100 97 100
98 74 46 14 35 60 27 20 92 58 60 30 42 88 100 68 82 100 98 97 98 64 57 6 100 100 100 96 82 13 2 0 0 0 0 0 5 31 5 5 78 73 27
100 91 56 25 91 100 100 100 100 89 7 82 90 100 100 18 100 100 86 91 77 62 99 100 99 22 100 92 24 5 8 0 0 0 0 0 0 0 0 1 1 5 4
81 62 87 100 100 100 100 100 100 28 56 64 97 98 44 99 100 100 93 98 6 60 91 90 53 64 86 48 13 4 2 0 0 0 0 0 0 0 0 0 0 0 2
97 100 100 100 100 100 100 100 100 100 99 100 100 99 76 100 100 100 99 88 52 96 85 73 55 35 5 3 0 0 0 0 0 0 0 0 0 0 42 50 5 1 5
100 100 100 100 100 100 100 100 100 98 100 100 98 100 100 100 100 100 6 69 37 34 49 9 5 5 2 0 0 3 4 5 0 12 26 100 96 59 92 1 4 5 3
100 100 100 100 100 100 100 100 100 100 100 100 100 100 100 100 98 100 32 5 23 35 5 56 5 48 2 1 5 5 4 22 100 13 68 44 1 2 31 5 5 5 8
100 100 100 100 100 100 100 100 100 100 100 100 100 100 100 100 100 98 72 96 44 18 5 5 5 4 61 23 100 100 67 100 99 90 4 16 17 4 3 1 5 17 21
100 100 100 100 100 100 100 100 100 100 100 100 100 100 100 98 99 100 98 78 48 30 21 96 11 75 100 100 100 54 100 42 3 0 2 2 3 2 2 3 5 1 1
100 100 100 100 100 100 100 100 100 100 100 100 100 100 100 98 100 100 94 100 100 100 100 100 100 100 100 100 100 98 100 20 5 4 0 2 0 5 5 10 5 0 0
100 100 100 100 100 100 100 100 100 100 100 100 100 100 100 97 100 71 100 100 100 93 100 100 100 100 100 100 55 92 24 5 5 5 5 26 5 4 5 9 6 20 1
100 100 100 100 100 100 100 100 100 100 100 100 100 99 60 93 92 100 100 100 99 100 100 100 100 72 84 50 85 55 5 6 7 5 23 15 20 5 5 4 17 19 16
100 100 100 100 100 100 100 100 100 100 100 100 100 100 100 100 100 100 100 100 100 100 99 99 90 97 98 6 46 14 88 95 92 63 20 5 5 2 0 0 0 26 25
100 100 100 100 100 100 100 100 100 100 100 100 100 100 100 100 100 100 100 100 100 100 100 100 100 100 6 8 76 100 78 63 6 29 6 2 0 0 0 0 0 0 0
100 100 100 100 100 100 100 100 100 100 100 100 100 100 100 100 100 100 100 100 100 100 100 100 5 30 94 100 100 80 47 27 7 4 0 0 0 0 0 0 0 0 0
100 100 100 100 100 100 100 100 100 100 100 100 100 100 100 100 100 100 100 100 100 100 74 5 48 100 86 100 90 53 12 0 0 0 0 0 0 0 0 0 0 0 0
100 100 100 100 100 100 100 100 100 100 100 100 100 100 100 100 100 100 100 100 100 30 3 58 86 79 26 18 19 4 0 0 0 0 0 0 0 0 0 0 0 0 0
100 100 100 43 74 100 100 100 100 100 100 100 100 100 45 98 78 40 10 4 4 20 25 17 50 5 5 3 5 5 5 0 0 0 0 0 0 0 0 0 0 0 0
75 96 100 99 100 100 100 100 100 98 100 98 87 100 100 94 100 90 66 54 5 5 5 5 5 4 5 5 75 60 5 2 4 0 2 2 0 0 0 0 0 0 0
100 100 71 38 34 32 12 57 100 89 100 100 100 49 38 35 56 80 27 5 5 5 5 5 51 83 86 52 42 15 6 4 0 0 4 2 0 0 0 0 0 0 0
100 100 100 100 100 100 100 100 100 100 100 100 86 21 25 5 17 5 5 38 5 5 5 27 46 100 97 86 80 5 5 1 1 1 0 5 5 1 0 0 0 0 0
100 100 100 100 100 84 54 25 17 32 64 100 72 100 100 82 79 99 63 50 6 74 81 94 100 100 100 98 5 3 0 5 5 5 5 5 0 0 1 0 0 0 0
32 54 49 40 39 17 13 91 100 90 100 100 91 100 95 100 85 51 80 81 82 62 70 71 33 72 94 61 3 5 5 4 5 5 3 1 1 0 3 0 0 0 0